Regional Weather Roundup
Issued by NWS Binghamton, NY

Home | Current Version | Previous Version | Text Only | Print | Product List | Glossary On
Versions: 1 2 3 4 5 6 7 8 9 10 11 12 13 14 15 16 17 18 19 20 21 22 23 24 25 26 27 28 29 30 31 32 33 34 35 36 37 38 39 40 41 42 43 44 45 46 47 48 49 50
000
ASUS41 KBGM 291410
RWRBGM

REGIONAL WEATHER ROUNDUP
NATIONAL WEATHER SERVICE BINGHAMTON NY
1000 AM EDT FRI APR 29 2016

Note: "fair" indicates few or no clouds below 12,000 feet with no
significant weather and/or obstructions to visibility.

* = Station(s) that does not report precipitation, such as rain,
snow, etc, also no thunder or fog.

NYZ009-015>018-022>025-036-037-044>046-055>057-062-291500
...Central New York...

CITY           SKY/WX    TMP DP  RH WIND       PRES   REMARKS
Binghamton     CLOUDY    47  40  76 SE8       30.03F
Cortland       CLOUDY    46  34  61 CALM      30.05S
Dansville      CLOUDY    45  34  65 N5        30.05F
Elmira         CLOUDY    48  34  58 N3        30.05S
Ithaca         CLOUDY    45  37  73 E3        30.05
Hamilton       CLOUDY    46  30  53 S5        30.07S
Hornell        CLOUDY    46  36  66 S3        30.07R
Monticello     CLOUDY    45  36  70 E9        30.10S
Norwich        CLOUDY    45  32  61 CALM      30.07F
Penn Yan       CLOUDY    44  33  65 E3        30.06S
Rome           SUNNY     49  25  39 E9        30.10F
Sidney         CLOUDY    50  37  62 NE5       30.06S
Syracuse       CLOUDY    48  29  47 CALM      30.08R
$$

PAZ038>040-043-044-047-048-072-291500
...Northeast Pennsylvania...

CITY           SKY/WX    TMP DP  RH WIND       PRES   REMARKS
Hazleton       CLOUDY    46  36  66 SE3       30.07S
Scranton       CLOUDY    53  34  48 SE9       30.04S
$$
&&
KEY
WCI = Wind Chill Index
VSB = Visibility
HX  = Heat Index
$$



USA.gov is the U.S. government's official web portal to all federal, state and local government web resources and services.